Time,TemperatureF,DewpointF,PressureIn,WindDirection,WindDirectionDegrees,WindSpeedMPH,WindSpeedGustMPH,Humidity,HourlyPrecipIn,Conditions,Clouds,dailyrainin,SoftwareType,DateUTC
2013-04-10 00:02:00,45.0,40.0,29.85,East,82,1.0,5.0,81,0.00,,,0.03,,2013-04-10 05:02:00,
2013-04-10 00:13:00,45.0,40.0,29.85,East,82,1.0,5.0,81,0.00,,,0.03,,2013-04-10 05:13:00,
2013-04-10 00:23:00,45.0,40.0,29.85,East,89,3.0,11.0,81,0.00,,,0.03,,2013-04-10 05:23:00,
2013-04-10 00:33:00,45.0,40.0,29.85,East,82,1.0,7.0,81,0.00,,,0.03,,2013-04-10 05:33:00,
2013-04-10 00:42:00,45.0,40.0,29.85,East,82,1.0,7.0,81,0.00,,,0.03,,2013-04-10 05:42:00,
2013-04-10 00:53:00,45.0,40.0,29.85,ESE,105,3.0,9.0,81,0.00,,,0.03,,2013-04-10 05:53:00,
2013-04-10 01:03:00,45.0,40.0,29.83,ENE,71,4.0,8.0,81,0.00,,,0.03,,2013-04-10 06:03:00,
2013-04-10 01:12:00,45.0,40.0,29.84,East,96,1.0,5.0,81,0.00,,,0.03,,2013-04-10 06:12:00,
2013-04-10 01:22:00,45.0,40.0,29.84,East,96,1.0,5.0,81,0.00,,,0.03,,2013-04-10 06:22:00,
2013-04-10 01:32:00,45.0,40.0,29.83,ENE,76,6.0,12.0,81,0.00,,,0.03,,2013-04-10 06:32:00,
2013-04-10 01:42:00,45.0,40.0,29.83,ENE,76,6.0,12.0,81,0.00,,,0.03,,2013-04-10 06:42:00,
2013-04-10 01:52:00,44.0,39.0,29.84,East,86,3.0,7.0,81,0.00,,,0.03,,2013-04-10 06:52:00,
2013-04-10 02:02:00,44.0,39.0,29.83,SE,132,4.0,8.0,82,0.00,,,0.03,,2013-04-10 07:02:00,
2013-04-10 02:12:00,44.0,39.0,29.83,SE,132,4.0,8.0,82,0.00,,,0.03,,2013-04-10 07:12:00,
2013-04-10 02:22:00,44.0,39.0,29.83,ENE,77,4.0,7.0,82,0.00,,,0.03,,2013-04-10 07:22:00,
2013-04-10 02:32:00,44.0,39.0,29.81,East,90,1.0,6.0,82,0.00,,,0.03,,2013-04-10 07:32:00,
2013-04-10 02:42:00,44.0,39.0,29.81,East,90,1.0,6.0,82,0.00,,,0.03,,2013-04-10 07:42:00,
2013-04-10 02:52:00,44.0,39.0,29.83,ENE,76,1.0,7.0,82,0.00,,,0.03,,2013-04-10 07:52:00,
2013-04-10 03:02:00,44.0,39.0,29.83,East,86,3.0,7.0,82,0.00,,,0.03,,2013-04-10 08:02:00,
2013-04-10 03:12:00,44.0,39.0,29.83,East,86,3.0,7.0,82,0.00,,,0.03,,2013-04-10 08:12:00,
2013-04-10 03:22:00,44.0,39.0,29.83,East,94,2.0,9.0,82,0.00,,,0.03,,2013-04-10 08:22:00,
2013-04-10 03:32:00,44.0,39.0,29.82,East,96,2.0,10.0,83,0.00,,,0.03,,2013-04-10 08:32:00,
2013-04-10 03:42:00,44.0,39.0,29.82,East,96,2.0,10.0,83,0.00,,,0.03,,2013-04-10 08:42:00,
2013-04-10 03:52:00,44.0,39.0,29.82,ESE,106,4.0,11.0,83,0.00,,,0.03,,2013-04-10 08:52:00,
2013-04-10 04:02:00,44.0,39.0,29.82,ESE,106,4.0,11.0,83,0.00,,,0.03,,2013-04-10 09:02:00,
2013-04-10 04:12:00,44.0,39.0,29.82,ESE,106,4.0,11.0,83,0.00,,,0.03,,2013-04-10 09:12:00,
2013-04-10 04:22:00,44.0,39.0,29.82,ESE,106,4.0,11.0,83,0.00,,,0.03,,2013-04-10 09:22:00,
2013-04-10 06:22:00,40.0,36.0,29.83,ENE,62,5.0,13.0,86,0.33,,,0.49,,2013-04-10 11:22:00,
2013-04-10 06:32:00,40.0,36.0,29.84,ESE,107,8.0,16.0,86,0.33,,,0.49,,2013-04-10 11:32:00,
2013-04-10 06:42:00,40.0,36.0,29.84,ESE,107,8.0,16.0,86,0.33,,,0.49,,2013-04-10 11:42:00,
2013-04-10 06:53:00,39.0,35.0,29.83,ESE,110,3.0,10.0,86,0.02,,,0.49,,2013-04-10 11:53:00,
2013-04-10 07:03:00,39.0,35.0,29.83,East,89,3.0,13.0,86,0.00,,,0.49,,2013-04-10 12:03:00,
2013-04-10 07:12:00,39.0,35.0,29.83,East,89,3.0,13.0,86,0.00,,,0.49,,2013-04-10 12:12:00,
2013-04-10 07:22:00,39.0,35.0,29.84,ENE,78,4.0,11.0,86,0.00,,,0.49,,2013-04-10 12:22:00,
2013-04-10 07:33:00,39.0,35.0,29.85,East,97,1.0,5.0,86,0.00,,,0.49,,2013-04-10 12:33:00,
2013-04-10 07:42:00,39.0,35.0,29.85,East,97,1.0,5.0,86,0.00,,,0.49,,2013-04-10 12:42:00,
2013-04-10 07:52:00,39.0,35.0,29.84,ESE,123,2.0,8.0,85,0.00,,,0.49,,2013-04-10 12:52:00,
2013-04-10 08:02:00,39.0,35.0,29.85,East,99,0.0,5.0,86,0.00,,,0.49,,2013-04-10 13:02:00,
2013-04-10 08:12:00,39.0,35.0,29.85,East,99,0.0,5.0,86,0.00,,,0.49,,2013-04-10 13:12:00,
2013-04-10 08:23:00,40.0,36.0,29.85,SE,132,0.0,4.0,86,0.00,,,0.49,,2013-04-10 13:23:00,
2013-04-10 08:32:00,40.0,36.0,29.89,NNW,342,0.0,6.0,85,0.00,,,0.49,,2013-04-10 13:32:00,
2013-04-10 08:43:00,40.0,36.0,29.89,NNW,342,0.0,6.0,85,0.00,,,0.49,,2013-04-10 13:43:00,
2013-04-10 08:53:00,40.0,36.0,29.95,WSW,253,1.0,4.0,85,0.01,,,0.50,,2013-04-10 13:53:00,
2013-04-10 09:02:00,40.0,36.0,29.98,WNW,282,4.0,6.0,86,0.02,,,0.51,,2013-04-10 14:02:00,
2013-04-10 09:12:00,40.0,36.0,29.98,WNW,282,4.0,6.0,86,0.02,,,0.51,,2013-04-10 14:12:00,
2013-04-10 09:22:00,40.0,36.0,29.94,WNW,297,1.0,7.0,86,0.04,,,0.53,,2013-04-10 14:22:00,
2013-04-10 09:32:00,40.0,36.0,29.83,North,350,2.0,4.0,86,0.09,,,0.58,,2013-04-10 14:32:00,
2013-04-10 09:42:00,40.0,36.0,29.83,North,350,2.0,4.0,86,0.09,,,0.58,,2013-04-10 14:42:00,
2013-04-10 09:52:00,40.0,36.0,29.80,NNE,23,2.0,4.0,86,0.08,,,0.58,,2013-04-10 14:52:00,
2013-04-10 10:02:00,41.0,37.0,29.83,East,99,2.0,8.0,87,0.07,,,0.58,,2013-04-10 15:02:00,
2013-04-10 10:12:00,41.0,37.0,29.83,East,99,2.0,8.0,87,0.07,,,0.58,,2013-04-10 15:12:00,
2013-04-10 10:22:00,41.0,37.0,29.87,ESE,115,1.0,6.0,87,0.04,,,0.58,,2013-04-10 15:22:00,
2013-04-10 10:32:00,41.0,37.0,29.88,NNE,25,1.0,9.0,87,0.00,,,0.58,,2013-04-10 15:32:00,
2013-04-10 10:42:00,41.0,37.0,29.88,NNE,25,1.0,9.0,87,0.00,,,0.58,,2013-04-10 15:42:00,
2013-04-10 10:52:00,41.0,37.0,29.88,East,96,1.0,3.0,86,0.00,,,0.58,,2013-04-10 15:52:00,
2013-04-10 11:03:00,41.0,37.0,29.90,ESE,105,0.0,5.0,87,0.02,,,0.60,,2013-04-10 16:03:00,
2013-04-10 11:13:00,41.0,37.0,29.90,ESE,105,0.0,5.0,87,0.02,,,0.60,,2013-04-10 16:13:00,
2013-04-10 11:23:00,42.0,38.0,29.85,ESE,105,2.0,3.0,87,0.02,,,0.60,,2013-04-10 16:23:00,
2013-04-10 11:33:00,42.0,38.0,29.84,ESE,111,4.0,7.0,87,0.02,,,0.60,,2013-04-10 16:33:00,
2013-04-10 11:43:00,42.0,38.0,29.84,ESE,111,4.0,7.0,87,0.02,,,0.60,,2013-04-10 16:43:00,
2013-04-10 11:53:00,42.0,38.0,29.88,NE,43,1.0,5.0,86,0.01,,,0.60,,2013-04-10 16:53:00,
2013-04-10 12:02:00,41.0,37.0,29.87,ENE,71,2.0,4.0,86,0.00,,,0.60,,2013-04-10 17:02:00,
2013-04-10 12:12:00,42.0,38.0,29.92,SE,130,1.0,5.0,86,0.00,,,0.60,,2013-04-10 17:12:00,
2013-04-10 12:22:00,42.0,38.0,29.92,SE,130,1.0,5.0,86,0.00,,,0.60,,2013-04-10 17:22:00,
2013-04-10 12:33:00,42.0,38.0,29.97,SSE,159,2.0,5.0,86,0.00,,,0.60,,2013-04-10 17:33:00,
2013-04-10 12:42:00,42.0,38.0,29.97,SSE,159,2.0,5.0,86,0.00,,,0.60,,2013-04-10 17:42:00,
2013-04-10 12:52:00,42.0,38.0,29.99,SSE,161,0.0,2.0,86,0.02,,,0.62,,2013-04-10 17:52:00,
2013-04-10 13:02:00,42.0,38.0,29.97,NNW,339,0.0,4.0,86,0.04,,,0.64,,2013-04-10 18:02:00,
2013-04-10 13:12:00,42.0,38.0,29.97,NNW,339,0.0,4.0,86,0.04,,,0.64,,2013-04-10 18:12:00,
2013-04-10 13:23:00,42.0,38.0,29.92,NNE,16,0.0,2.0,87,0.04,,,0.64,,2013-04-10 18:23:00,
2013-04-10 13:33:00,42.0,38.0,29.87,NE,50,3.0,5.0,86,0.04,,,0.64,,2013-04-10 18:33:00,
2013-04-10 13:42:00,42.0,38.0,29.87,NE,50,3.0,5.0,86,0.04,,,0.64,,2013-04-10 18:42:00,
2013-04-10 13:52:00,42.0,38.0,29.85,NNE,22,2.0,6.0,86,0.02,,,0.64,,2013-04-10 18:52:00,
2013-04-10 14:03:00,42.0,38.0,29.89,NNE,17,1.0,7.0,86,0.03,,,0.67,,2013-04-10 19:03:00,
2013-04-10 14:12:00,42.0,38.0,29.89,NNE,17,1.0,7.0,86,0.03,,,0.67,,2013-04-10 19:12:00,
2013-04-10 14:22:00,42.0,38.0,29.90,North,5,1.0,4.0,87,0.04,,,0.68,,2013-04-10 19:22:00,
2013-04-10 14:33:00,42.0,38.0,29.90,North,355,1.0,4.0,86,0.06,,,0.70,,2013-04-10 19:33:00,
2013-04-10 14:42:00,42.0,38.0,29.90,North,355,1.0,4.0,86,0.06,,,0.70,,2013-04-10 19:42:00,
2013-04-10 14:53:00,42.0,38.0,29.88,North,5,3.0,5.0,86,0.08,,,0.72,,2013-04-10 19:53:00,
2013-04-10 15:02:00,42.0,38.0,29.91,ESE,109,1.0,4.0,86,0.07,,,0.74,,2013-04-10 20:02:00,
2013-04-10 15:12:00,42.0,38.0,29.87,East,82,3.0,5.0,87,0.07,,,0.75,,2013-04-10 20:12:00,
2013-04-10 15:23:00,42.0,38.0,29.87,East,82,3.0,5.0,87,0.07,,,0.75,,2013-04-10 20:23:00,
2013-04-10 15:33:00,42.0,38.0,29.85,East,90,2.0,6.0,87,0.06,,,0.76,,2013-04-10 20:33:00,
2013-04-10 15:42:00,42.0,38.0,29.82,ENE,61,3.0,5.0,87,0.04,,,0.76,,2013-04-10 20:42:00,
2013-04-10 15:52:00,42.0,38.0,29.82,ENE,61,3.0,5.0,87,0.04,,,0.76,,2013-04-10 20:52:00,
2013-04-10 16:02:00,42.0,38.0,29.85,ESE,115,2.0,11.0,86,0.02,,,0.76,,2013-04-10 21:02:00,
2013-04-10 16:12:00,42.0,38.0,29.85,ESE,115,2.0,11.0,86,0.02,,,0.76,,2013-04-10 21:12:00,
2013-04-10 16:22:00,42.0,38.0,29.86,SE,144,3.0,9.0,86,0.01,,,0.76,,2013-04-10 21:22:00,
2013-04-10 16:33:00,42.0,38.0,29.85,East,97,5.0,8.0,86,0.00,,,0.76,,2013-04-10 21:33:00,
2013-04-10 16:42:00,42.0,38.0,29.85,East,97,5.0,8.0,86,0.00,,,0.76,,2013-04-10 21:42:00,
2013-04-10 16:53:00,42.0,38.0,29.84,East,92,3.0,11.0,86,0.01,,,0.77,,2013-04-10 21:53:00,
2013-04-10 17:03:00,43.0,39.0,29.85,East,94,3.0,6.0,86,0.03,,,0.79,,2013-04-10 22:03:00,
2013-04-10 17:12:00,43.0,39.0,29.85,East,94,3.0,6.0,86,0.03,,,0.79,,2013-04-10 22:12:00,
2013-04-10 17:23:00,43.0,39.0,29.84,East,92,3.0,8.0,87,0.04,,,0.80,,2013-04-10 22:23:00,
2013-04-10 17:33:00,43.0,39.0,29.80,East,81,4.0,8.0,87,0.04,,,0.80,,2013-04-10 22:33:00,
2013-04-10 17:42:00,43.0,39.0,29.80,East,81,4.0,8.0,87,0.04,,,0.80,,2013-04-10 22:42:00,
2013-04-10 17:53:00,43.0,39.0,29.78,East,80,4.0,11.0,87,0.02,,,0.80,,2013-04-10 22:53:00,
2013-04-10 18:02:00,43.0,39.0,29.76,East,83,6.0,11.0,86,0.01,,,0.80,,2013-04-10 23:02:00,
2013-04-10 18:12:00,43.0,39.0,29.76,East,83,6.0,11.0,86,0.01,,,0.80,,2013-04-10 23:12:00,
2013-04-10 18:22:00,43.0,39.0,29.80,South,188,7.0,15.0,86,0.00,,,0.80,,2013-04-10 23:22:00,
2013-04-10 18:33:00,43.0,39.0,29.79,ESE,105,6.0,10.0,85,0.00,,,0.80,,2013-04-10 23:33:00,
2013-04-10 18:42:00,43.0,39.0,29.79,ESE,105,6.0,10.0,85,0.00,,,0.80,,2013-04-10 23:42:00,
2013-04-10 18:53:00,43.0,39.0,29.78,East,91,4.0,9.0,85,0.00,,,0.80,,2013-04-10 23:53:00,
2013-04-10 19:02:00,42.0,38.0,29.77,East,79,3.0,11.0,85,0.00,,,0.80,,2013-04-11 00:02:00,
2013-04-10 19:12:00,42.0,38.0,29.77,East,79,3.0,11.0,85,0.00,,,0.80,,2013-04-11 00:12:00,
2013-04-10 19:22:00,42.0,38.0,29.79,SE,135,3.0,12.0,85,0.01,,,0.81,,2013-04-11 00:22:00,
2013-04-10 19:32:00,42.0,38.0,29.80,East,101,4.0,11.0,86,0.03,,,0.83,,2013-04-11 00:32:00,
2013-04-10 19:42:00,42.0,38.0,29.80,East,100,1.0,8.0,86,0.06,,,0.86,,2013-04-11 00:42:00,
2013-04-10 19:53:00,42.0,38.0,29.80,East,100,1.0,8.0,86,0.06,,,0.86,,2013-04-11 00:53:00,
2013-04-10 20:02:00,42.0,38.0,29.79,East,83,4.0,8.0,86,0.12,,,0.92,,2013-04-11 01:02:00,
2013-04-10 20:12:00,42.0,38.0,29.77,East,98,3.0,8.0,87,0.17,,,0.98,,2013-04-11 01:12:00,
2013-04-10 20:22:00,42.0,38.0,29.77,East,98,3.0,8.0,87,0.17,,,0.98,,2013-04-11 01:22:00,
2013-04-10 20:32:00,42.0,38.0,29.74,ENE,69,5.0,10.0,87,0.19,,,1.02,,2013-04-11 01:32:00,
2013-04-10 20:42:00,42.0,38.0,29.74,ENE,69,5.0,10.0,87,0.19,,,1.02,,2013-04-11 01:42:00,
2013-04-10 20:52:00,42.0,38.0,29.78,ESE,107,5.0,8.0,87,0.19,,,1.05,,2013-04-11 01:52:00,
2013-04-10 21:02:00,42.0,38.0,29.79,East,80,2.0,6.0,87,0.17,,,1.09,,2013-04-11 02:02:00,
2013-04-10 21:12:00,42.0,38.0,29.80,North,360,0.0,5.0,87,0.17,,,1.15,,2013-04-11 02:12:00,
2013-04-10 21:22:00,42.0,38.0,29.80,North,360,0.0,5.0,87,0.17,,,1.15,,2013-04-11 02:22:00,
2013-04-10 21:32:00,41.0,37.0,29.79,ENE,75,2.0,5.0,87,0.18,,,1.20,,2013-04-11 02:32:00,
2013-04-10 21:42:00,41.0,37.0,29.79,ENE,75,2.0,5.0,87,0.18,,,1.20,,2013-04-11 02:42:00,
2013-04-10 21:53:00,41.0,37.0,29.80,East,92,2.0,8.0,87,0.17,,,1.22,,2013-04-11 02:53:00,
2013-04-10 22:02:00,41.0,37.0,29.80,ENE,76,3.0,8.0,87,0.15,,,1.25,,2013-04-11 03:02:00,
2013-04-10 22:12:00,41.0,37.0,29.80,East,98,5.0,8.0,87,0.11,,,1.27,,2013-04-11 03:12:00,
2013-04-10 22:22:00,41.0,37.0,29.80,East,98,5.0,8.0,87,0.11,,,1.27,,2013-04-11 03:22:00,
2013-04-10 22:33:00,41.0,37.0,29.81,ENE,73,0.0,12.0,87,0.09,,,1.29,,2013-04-11 03:33:00,
2013-04-10 22:43:00,41.0,37.0,29.78,ENE,67,5.0,9.0,87,0.10,,,1.33,,2013-04-11 03:43:00,
2013-04-10 22:53:00,41.0,37.0,29.78,ENE,67,5.0,9.0,87,0.10,,,1.33,,2013-04-11 03:53:00,
2013-04-10 23:03:00,41.0,37.0,29.77,East,84,2.0,8.0,87,0.09,,,1.35,,2013-04-11 04:03:00,
2013-04-10 23:12:00,41.0,37.0,29.65,East,97,6.0,17.0,87,0.08,,,1.36,,2013-04-11 04:12:00,
2013-04-10 23:22:00,41.0,37.0,29.65,East,97,6.0,17.0,87,0.08,,,1.36,,2013-04-11 04:22:00,
2013-04-10 23:33:00,41.0,37.0,29.68,ESE,111,6.0,11.0,87,0.07,,,1.36,,2013-04-11 04:33:00,
2013-04-10 23:42:00,41.0,37.0,29.68,ESE,111,6.0,11.0,87,0.07,,,1.36,,2013-04-11 04:42:00,
2013-04-10 23:53:00,41.0,37.0,29.69,East,101,8.0,15.0,87,0.03,,,1.36,,2013-04-11 04:53:00,